| time (UTC) | temp F | wind direction | speed knots | gust knots | rain 1hr in | rain 24hr in | rain mn in | humidity % | barometer mb |
| 20260902161511 | 65 | 146 | 0.9 | 2.6 | 0.00 | 0.00 | 0.00 | 77 | 1020.9 |
| 20260902160010 | 65 | 189 | 0.0 | 3.5 | 0.00 | 0.00 | 0.00 | 80 | 1021.0 |
| 20260902154510 | 66 | 295 | 0.0 | 1.7 | 0.00 | 0.00 | 0.00 | 81 | 1021.1 |
| 20260902153010 | 65 | 295 | 0.9 | 3.5 | 0.00 | 0.00 | 0.00 | 82 | 1021.1 |
| 20260902151507 | 65 | 161 | 1.7 | 4.3 | 0.00 | 0.00 | 0.00 | 82 | 1021.2 |
| 20260902150006 | 66 | 128 | 0.0 | 2.6 | 0.00 | 0.00 | 0.00 | 81 | 1021.2 |
| 20260902144504 | 65 | 135 | 0.0 | 1.7 | 0.00 | 0.00 | 0.00 | 81 | 1020.9 |
| 20260902143109 | 64 | 130 | 0.9 | 5.2 | 0.00 | 0.00 | 0.00 | 85 | 1020.8 |
| 20260902141557 | 64 | 150 | 0.9 | 2.6 | 0.00 | 0.00 | 0.00 | 86 | 1020.9 |
| 20260902140055 | 63 | 202 | 0.0 | 2.6 | 0.00 | 0.00 | 0.00 | 87 | 1020.8 |
| 20260902134558 | 63 | 63 | 0.0 | 2.6 | 0.00 | 0.00 | 0.00 | 87 | 1020.6 |
| 20260902133057 | 63 | 125 | 0.9 | 3.5 | 0.00 | 0.00 | 0.00 | 87 | 1020.7 |
| 20260902131601 | 63 | 17 | 0.0 | 1.7 | 0.00 | 0.00 | 0.00 | 87 | 1020.6 |
| 20260902130052 | 62 | 27 | 0.0 | 3.5 | 0.00 | 0.00 | 0.00 | 87 | 1020.6 |
| 20260902124552 | 62 | 63 | 0.0 | 1.7 | 0.00 | 0.00 | 0.00 | 88 | 1020.8 |
| 20260902123051 | 62 | 63 | 0.0 | 1.7 | 0.00 | 0.00 | 0.00 | 88 | 1020.6 |
| 20260902121550 | 62 | 58 | 0.0 | 2.6 | 0.00 | 0.00 | 0.00 | 89 | 1020.5 |
| 20260902120049 | 61 | 42 | 0.0 | 2.6 | 0.00 | 0.00 | 0.00 | 89 | 1020.7 |
| 20260902114550 | 61 | 40 | 1.7 | 3.5 | 0.00 | 0.00 | 0.00 | 89 | 1020.5 |
| 20260902113051 | 61 | 142 | 0.9 | 3.5 | 0.00 | 0.00 | 0.00 | 89 | 1020.7 |
| 20260902111547 | 61 | 41 | 0.0 | 3.5 | 0.00 | 0.00 | 0.00 | 89 | 1020.5 |
| 20260902110044 | 61 | 161 | 0.0 | 2.6 | 0.00 | 0.00 | 0.00 | 89 | 1020.2 |
| 20260902104604 | 61 | 61 | 0.0 | 3.5 | 0.00 | 0.00 | 0.00 | 90 | 1019.9 |
| 20260902103041 | 61 | 49 | 0.0 | 1.7 | 0.00 | 0.00 | 0.00 | 90 | 1020.0 |
| 20260902101540 | 61 | 50 | 0.0 | 0.9 | 0.00 | 0.00 | 0.00 | 90 | 1020.0 |
| 20260902100056 | 61 | 45 | 0.0 | 2.6 | 0.00 | 0.00 | 0.00 | 90 | 1019.9 |
| 20260902094538 | 61 | 46 | 0.0 | 1.7 | 0.00 | 0.00 | 0.00 | 90 | 1019.7 |
| 20260902093036 | 61 | 46 | 0.0 | 0.0 | 0.00 | 0.00 | 0.00 | 90 | 1019.6 |
| 20260902091536 | 61 | 46 | 0.0 | 0.9 | 0.00 | 0.00 | 0.00 | 90 | 1019.5 |
| 20260902090034 | 61 | 46 | 0.0 | 0.0 | 0.00 | 0.00 | 0.00 | 90 | 1019.6 |
| 20260902084533 | 61 | 46 | 0.0 | 0.0 | 0.00 | 0.00 | 0.00 | 89 | 1019.7 |
| 20260902083032 | 61 | 46 | 0.0 | 0.9 | 0.00 | 0.00 | 0.00 | 89 | 1019.6 |
| 20260902081536 | 61 | 46 | 0.0 | 0.0 | 0.00 | 0.00 | 0.00 | 89 | 1019.6 |
| 20260902080033 | 61 | 46 | 0.0 | 0.9 | 0.00 | 0.00 | 0.00 | 89 | 1019.5 |
| 20260902074528 | 62 | 46 | 0.0 | 0.0 | 0.00 | 0.00 | 0.00 | 89 | 1019.4 |
| 20260902073027 | 62 | 46 | 0.0 | 0.0 | 0.00 | 0.00 | 0.00 | 89 | 1019.4 |
| 20260902071534 | 62 | 46 | 0.0 | 0.0 | 0.00 | 0.00 | 0.00 | 89 | 1019.2 |
| 20260902070030 | 62 | 46 | 0.0 | 0.9 | 0.00 | 0.00 | 0.00 | 89 | 1019.2 |
| 20260902064526 | 62 | 46 | 0.0 | 0.9 | 0.00 | 0.00 | 0.00 | 89 | 1019.2 |
| 20260902063028 | 62 | 46 | 0.0 | 0.9 | 0.00 | 0.00 | 0.00 | 89 | 1019.1 |
| 20260902061523 | 62 | 46 | 0.0 | 0.0 | 0.00 | 0.00 | 0.00 | 89 | 1019.1 |
| 20260902060027 | 62 | 46 | 0.0 | 0.0 | 0.00 | 0.00 | 0.00 | 89 | 1019.4 |
| 20260902054523 | 62 | 46 | 0.0 | 0.9 | 0.00 | 0.00 | 0.00 | 89 | 1019.2 |
| 20260902053019 | 62 | 46 | 0.0 | 0.9 | 0.00 | 0.00 | 0.00 | 89 | 1019.0 |
| 20260902051516 | 62 | 46 | 0.0 | 1.7 | 0.00 | 0.00 | 0.00 | 88 | 1018.8 |
| 20260902050016 | 62 | 46 | 0.0 | 1.7 | 0.00 | 0.00 | 0.00 | 88 | 1018.5 |
| 20260902044531 | 62 | 48 | 0.0 | 0.9 | 0.00 | 0.00 | 0.00 | 88 | 1018.3 |
| 20260902043008 | 62 | 48 | 0.9 | 3.5 | 0.00 | 0.00 | 0.00 | 87 | 1018.2 |
| 20260902041506 | 63 | 30 | 0.9 | 2.6 | 0.00 | 0.00 | 0.00 | 87 | 1018.2 |
| 20260902040004 | 63 | 60 | 0.0 | 3.5 | 0.00 | 0.00 | 0.00 | 87 | 1017.9 |
| 20260902034502 | 63 | 24 | 0.0 | 1.7 | 0.00 | 0.00 | 0.00 | 87 | 1018.0 |
| 20260902033114 | 63 | 24 | 0.0 | 1.7 | 0.00 | 0.00 | 0.00 | 87 | 1017.9 |
| 20260902031601 | 63 | 24 | 0.0 | 0.9 | 0.00 | 0.00 | 0.00 | 87 | 1017.7 |
| 20260902030059 | 63 | 24 | 0.9 | 1.7 | 0.00 | 0.00 | 0.00 | 87 | 1017.6 |
| 20260902024608 | 63 | 24 | 0.0 | 0.9 | 0.00 | 0.00 | 0.00 | 87 | 1017.3 |
| 20260902023100 | 63 | 24 | 0.0 | 0.9 | 0.00 | 0.00 | 0.00 | 87 | 1017.6 |
| 20260902021558 | 63 | 24 | 0.0 | 0.9 | 0.00 | 0.00 | 0.00 | 86 | 1017.6 |
| 20260902020123 | 64 | 24 | 0.0 | 0.9 | 0.00 | 0.00 | 0.00 | 86 | 1017.6 |
| 20260902014602 | 64 | 24 | 0.0 | 0.9 | 0.00 | 0.00 | 0.00 | 86 | 1017.6 |
| 20260902013058 | 64 | 24 | 0.0 | 1.7 | 0.00 | 0.00 | 0.00 | 86 | 1017.8 |
| 20260902011557 | 64 | 24 | 0.0 | 1.7 | 0.00 | 0.00 | 0.00 | 86 | 1017.7 |
| 20260902010055 | 63 | 24 | 0.0 | 0.9 | 0.00 | 0.00 | 0.00 | 86 | 1017.6 |
| 20260902004552 | 64 | 24 | 0.0 | 0.0 | 0.00 | 0.00 | 0.00 | 86 | 1017.4 |
| 20260902003049 | 64 | 24 | 0.0 | 2.6 | 0.00 | 0.00 | 0.00 | 86 | 1017.3 |
| 20260902001548 | 65 | 10 | 0.9 | 2.6 | 0.00 | 0.00 | 0.00 | 86 | 1017.0 |
| 20260902000048 | 65 | 32 | 0.0 | 1.7 | 0.00 | 0.00 | 0.00 | 85 | 1016.9 |
| 20260901234602 | 65 | 32 | 0.0 | 1.7 | 0.00 | 0.00 | 0.00 | 85 | 1016.9 |
| 20260901233052 | 65 | 32 | 0.0 | 0.9 | 0.00 | 0.00 | 0.00 | 85 | 1016.9 |
| 20260901231545 | 66 | 32 | 0.0 | 0.9 | 0.00 | 0.00 | 0.00 | 84 | 1016.9 |
| 20260901230050 | 66 | 32 | 0.0 | 0.9 | 0.00 | 0.00 | 0.00 | 82 | 1016.8 |
| 20260901224548 | 67 | 32 | 0.0 | 2.6 | 0.00 | 0.00 | 0.00 | 80 | 1016.6 |
| 20260901223051 | 68 | 33 | 0.9 | 4.3 | 0.00 | 0.00 | 0.00 | 78 | 1016.4 |
| 20260901221607 | 70 | 218 | 0.0 | 2.6 | 0.00 | 0.00 | 0.00 | 76 | 1016.3 |
| 20260901220043 | 70 | 67 | 0.0 | 2.6 | 0.00 | 0.00 | 0.00 | 72 | 1016.4 |
| 20260901214541 | 70 | 184 | 0.0 | 3.5 | 0.00 | 0.00 | 0.00 | 67 | 1016.4 |
| 20260901213043 | 70 | 161 | 0.9 | 6.1 | 0.00 | 0.00 | 0.00 | 66 | 1016.2 |
| 20260901211541 | 71 | 163 | 0.0 | 5.2 | 0.00 | 0.00 | 0.00 | 66 | 1016.1 |
| 20260901210040 | 71 | 286 | 0.9 | 6.1 | 0.00 | 0.00 | 0.00 | 62 | 1016.0 |
| 20260901204542 | 72 | 346 | 0.9 | 3.5 | 0.00 | 0.00 | 0.00 | 64 | 1015.8 |
| 20260901203053 | 72 | 15 | 0.0 | 2.6 | 0.00 | 0.00 | 0.00 | 71 | 1015.8 |
| 20260901201546 | 72 | 196 | 0.9 | 4.3 | 0.00 | 0.00 | 0.00 | 68 | 1015.7 |
| 20260901200038 | 72 | 211 | 1.7 | 4.3 | 0.00 | 0.00 | 0.00 | 66 | 1015.7 |
| 20260901194537 | 72 | 220 | 1.7 | 6.1 | 0.00 | 0.00 | 0.00 | 62 | 1015.7 |
| 20260901193037 | 72 | 187 | 0.9 | 6.1 | 0.00 | 0.00 | 0.00 | 62 | 1015.8 |
| 20260901191638 | 73 | 188 | 1.7 | 4.3 | 0.00 | 0.00 | 0.00 | 59 | 1015.9 |
| 20260901190042 | 73 | 157 | 0.0 | 2.6 | 0.00 | 0.00 | 0.00 | 57 | 1015.9 |
| 20260901184538 | 74 | 157 | 0.9 | 5.2 | 0.00 | 0.00 | 0.00 | 54 | 1015.9 |
| 20260901183037 | 74 | 360 | 0.9 | 2.6 | 0.00 | 0.00 | 0.00 | 57 | 1015.7 |
| 20260901181538 | 74 | 15 | 0.9 | 3.5 | 0.00 | 0.00 | 0.00 | 53 | 1015.8 |
| 20260901180034 | 75 | 340 | 0.9 | 7.8 | 0.00 | 0.00 | 0.00 | 51 | 1015.6 |
| 20260901174533 | 74 | 25 | 0.0 | 3.5 | 0.00 | 0.00 | 0.00 | 57 | 1015.7 |
| 20260901173031 | 76 | 34 | 2.6 | 5.2 | 0.00 | 0.00 | 0.00 | 52 | 1015.7 |
| 20260901171527 | 74 | 161 | 0.9 | 7.0 | 0.00 | 0.00 | 0.00 | 60 | 1015.7 |
| 20260901170024 | 71 | 213 | 0.9 | 2.6 | 0.00 | 0.00 | 0.00 | 64 | 1015.7 |
| 20260901164524 | 71 | 26 | 0.9 | 4.3 | 0.00 | 0.00 | 0.00 | 62 | 1015.7 |
| 20260901163021 | 69 | 32 | 1.7 | 3.5 | 0.00 | 0.00 | 0.00 | 63 | 1016.0 |